Time,TemperatureF,DewpointF,PressureIn,WindDirection,WindDirectionDegrees,WindSpeedMPH,WindSpeedGustMPH,Humidity,HourlyPrecipIn,Conditions,Clouds,dailyrainin,SoftwareType,DateUTC
2013-07-13 00:02:00,64.0,63.0,30.16,SE,144,0.0,6.0,95,0.00,,,0.00,,2013-07-13 04:02:00,
2013-07-13 00:12:00,64.0,63.0,30.16,East,87,3.0,6.0,96,0.00,,,0.00,,2013-07-13 04:12:00,
2013-07-13 00:22:00,64.0,63.0,30.16,East,87,3.0,6.0,96,0.00,,,0.00,,2013-07-13 04:22:00,
2013-07-13 00:32:00,63.0,62.0,30.17,ESE,121,0.0,0.0,96,0.00,,,0.00,,2013-07-13 04:32:00,
2013-07-13 00:44:00,63.0,62.0,30.17,ESE,121,0.0,0.0,96,0.00,,,0.00,,2013-07-13 04:44:00,
2013-07-13 00:52:00,63.0,62.0,30.17,ESE,121,0.0,0.0,96,0.00,,,0.00,,2013-07-13 04:52:00,
2013-07-13 01:01:00,63.0,62.0,30.17,ESE,121,0.0,0.0,96,0.00,,,0.00,,2013-07-13 05:01:00,
2013-07-13 01:11:00,63.0,62.0,30.17,ESE,121,0.0,0.0,96,0.00,,,0.00,,2013-07-13 05:11:00,
2013-07-13 01:22:00,63.0,62.0,30.15,SE,124,1.0,9.0,96,0.00,,,0.00,,2013-07-13 05:22:00,
2013-07-13 01:32:00,63.0,62.0,30.15,SE,124,1.0,9.0,96,0.00,,,0.00,,2013-07-13 05:32:00,
2013-07-13 01:42:00,63.0,62.0,30.16,ESE,108,4.0,10.0,96,0.00,,,0.00,,2013-07-13 05:42:00,
2013-07-13 01:52:00,63.0,62.0,30.16,ESE,108,4.0,10.0,96,0.00,,,0.00,,2013-07-13 05:52:00,
2013-07-13 02:02:00,62.0,61.0,30.16,SE,130,0.0,10.0,96,0.00,,,0.00,,2013-07-13 06:02:00,
2013-07-13 02:11:00,62.0,61.0,30.16,SE,130,0.0,10.0,96,0.00,,,0.00,,2013-07-13 06:11:00,
2013-07-13 02:32:00,62.0,61.0,30.16,ESE,122,0.0,7.0,97,0.00,,,0.00,,2013-07-13 06:32:00,
2013-07-13 02:52:00,62.0,61.0,30.16,East,93,1.0,6.0,98,0.00,,,0.00,,2013-07-13 06:52:00,
2013-07-13 03:02:00,62.0,62.0,30.16,East,85,5.0,5.0,99,0.00,,,0.00,,2013-07-13 07:02:00,
2013-07-13 03:11:00,62.0,62.0,30.16,East,85,5.0,5.0,99,0.00,,,0.00,,2013-07-13 07:11:00,
2013-07-13 03:22:00,61.0,61.0,30.16,ESE,106,4.0,9.0,99,0.00,,,0.00,,2013-07-13 07:22:00,
2013-07-13 03:33:00,61.0,61.0,30.16,East,97,0.0,6.0,99,0.00,,,0.00,,2013-07-13 07:33:00,
2013-07-13 03:44:00,61.0,61.0,30.16,East,97,0.0,6.0,99,0.00,,,0.00,,2013-07-13 07:44:00,
2013-07-13 03:53:00,61.0,61.0,30.16,East,97,0.0,6.0,99,0.00,,,0.00,,2013-07-13 07:53:00,
2013-07-13 04:02:00,61.0,61.0,30.15,East,97,0.0,7.0,100,0.00,,,0.00,,2013-07-13 08:02:00,
2013-07-13 04:12:00,61.0,61.0,30.15,East,97,0.0,7.0,100,0.00,,,0.00,,2013-07-13 08:12:00,
2013-07-13 04:22:00,61.0,61.0,30.15,East,97,0.0,7.0,100,0.00,,,0.00,,2013-07-13 08:22:00,
2013-07-13 04:33:00,61.0,61.0,30.15,East,88,0.0,3.0,100,0.00,,,0.00,,2013-07-13 08:33:00,
2013-07-13 04:43:00,61.0,61.0,30.15,East,88,0.0,3.0,100,0.00,,,0.00,,2013-07-13 08:43:00,
2013-07-13 04:52:00,61.0,61.0,30.15,East,88,0.0,4.0,100,0.00,,,0.00,,2013-07-13 08:52:00,
2013-07-13 05:02:00,61.0,61.0,30.15,East,88,0.0,4.0,100,0.00,,,0.00,,2013-07-13 09:02:00,
2013-07-13 05:22:00,61.0,61.0,30.15,East,90,0.0,5.0,100,0.00,,,0.00,,2013-07-13 09:22:00,
2013-07-13 05:33:00,61.0,61.0,30.15,East,90,0.0,5.0,100,0.00,,,0.00,,2013-07-13 09:33:00,
2013-07-13 05:43:00,61.0,61.0,30.15,East,90,0.0,5.0,100,0.00,,,0.00,,2013-07-13 09:43:00,
2013-07-13 06:01:00,61.0,61.0,30.16,SE,132,1.0,5.0,100,0.00,,,0.00,,2013-07-13 10:01:00,
2013-07-13 06:11:00,61.0,61.0,30.16,East,88,4.0,6.0,100,0.00,,,0.00,,2013-07-13 10:11:00,
2013-07-13 06:32:00,61.0,61.0,30.16,East,96,5.0,6.0,100,0.00,,,0.00,,2013-07-13 10:32:00,
2013-07-13 06:43:00,61.0,61.0,30.17,SE,126,2.0,6.0,100,0.00,,,0.00,,2013-07-13 10:43:00,
2013-07-13 06:52:00,61.0,61.0,30.17,SE,126,2.0,6.0,100,0.00,,,0.00,,2013-07-13 10:52:00,
2013-07-13 07:02:00,61.0,61.0,30.17,ENE,69,5.0,6.0,100,0.00,,,0.00,,2013-07-13 11:02:00,
2013-07-13 07:11:00,61.0,61.0,30.17,ENE,69,5.0,6.0,100,0.00,,,0.00,,2013-07-13 11:11:00,
2013-07-13 07:32:00,61.0,61.0,30.18,ESE,123,0.0,5.0,100,0.00,,,0.00,,2013-07-13 11:32:00,
2013-07-13 07:52:00,62.0,62.0,30.19,East,98,2.0,6.0,100,0.00,,,0.00,,2013-07-13 11:52:00,
2013-07-13 08:02:00,62.0,62.0,30.19,SE,142,5.0,10.0,100,0.00,,,0.00,,2013-07-13 12:02:00,
2013-07-13 08:12:00,62.0,62.0,30.19,SE,142,5.0,10.0,100,0.00,,,0.00,,2013-07-13 12:12:00,
2013-07-13 08:22:00,63.0,63.0,30.21,SSE,159,2.0,6.0,100,0.00,,,0.00,,2013-07-13 12:22:00,
2013-07-13 08:32:00,63.0,63.0,30.21,SSE,159,2.0,6.0,100,0.00,,,0.00,,2013-07-13 12:32:00,
2013-07-13 08:43:00,63.0,63.0,30.21,SSE,159,2.0,6.0,100,0.00,,,0.00,,2013-07-13 12:43:00,
2013-07-13 09:01:00,64.0,63.0,30.22,East,91,3.0,4.0,98,0.00,,,0.00,,2013-07-13 13:01:00,
2013-07-13 09:12:00,64.0,63.0,30.22,East,91,3.0,4.0,98,0.00,,,0.00,,2013-07-13 13:12:00,
2013-07-13 09:22:00,64.0,63.0,30.22,East,90,4.0,5.0,97,0.00,,,0.00,,2013-07-13 13:22:00,
2013-07-13 09:32:00,64.0,63.0,30.23,East,82,1.0,6.0,97,0.00,,,0.00,,2013-07-13 13:32:00,
2013-07-13 09:43:00,64.0,63.0,30.23,SSE,159,3.0,6.0,97,0.00,,,0.00,,2013-07-13 13:43:00,
2013-07-13 09:53:00,64.0,63.0,30.23,SSE,159,3.0,6.0,97,0.00,,,0.00,,2013-07-13 13:53:00,
2013-07-13 10:02:00,64.0,63.0,30.23,East,96,0.0,7.0,98,0.00,,,0.00,,2013-07-13 14:02:00,
2013-07-13 10:11:00,64.0,63.0,30.23,East,96,0.0,7.0,98,0.00,,,0.00,,2013-07-13 14:11:00,
2013-07-13 10:32:00,65.0,64.0,30.23,ESE,111,0.0,4.0,97,0.00,,,0.00,,2013-07-13 14:32:00,
2013-07-13 10:43:00,65.0,64.0,30.23,ESE,111,0.0,4.0,97,0.00,,,0.00,,2013-07-13 14:43:00,
2013-07-13 10:53:00,65.0,64.0,30.23,SE,124,0.0,9.0,96,0.00,,,0.00,,2013-07-13 14:53:00,
2013-07-13 11:02:00,66.0,64.0,30.23,ESE,103,3.0,6.0,94,0.00,,,0.00,,2013-07-13 15:02:00,
2013-07-13 11:12:00,66.0,64.0,30.23,ESE,103,3.0,6.0,94,0.00,,,0.00,,2013-07-13 15:12:00,
2013-07-13 11:22:00,67.0,65.0,30.23,SE,127,4.0,6.0,94,0.00,,,0.00,,2013-07-13 15:22:00,
2013-07-13 11:33:00,66.0,64.0,30.23,East,84,4.0,7.0,94,0.00,,,0.00,,2013-07-13 15:33:00,
2013-07-13 11:43:00,66.0,64.0,30.23,East,84,4.0,7.0,94,0.00,,,0.00,,2013-07-13 15:43:00,
2013-07-13 11:53:00,66.0,64.0,30.23,East,84,4.0,7.0,94,0.00,,,0.00,,2013-07-13 15:53:00,
2013-07-13 12:02:00,66.0,64.0,30.23,East,84,4.0,7.0,94,0.00,,,0.00,,2013-07-13 16:02:00,
2013-07-13 12:12:00,66.0,64.0,30.23,East,84,4.0,7.0,94,0.00,,,0.00,,2013-07-13 16:12:00,
2013-07-13 12:22:00,67.0,65.0,30.25,ENE,65,2.0,10.0,94,0.00,,,0.00,,2013-07-13 16:22:00,
2013-07-13 12:33:00,68.0,66.0,30.25,ENE,67,2.0,8.0,92,0.00,,,0.00,,2013-07-13 16:33:00,
2013-07-13 12:43:00,68.0,66.0,30.25,SE,141,3.0,7.0,92,0.00,,,0.00,,2013-07-13 16:43:00,
2013-07-13 12:53:00,68.0,66.0,30.25,ENE,65,2.0,7.0,92,0.00,,,0.00,,2013-07-13 16:53:00,
2013-07-13 13:01:00,68.0,66.0,30.25,ENE,65,2.0,7.0,92,0.00,,,0.00,,2013-07-13 17:01:00,
2013-07-13 13:12:00,69.0,66.0,30.25,ESE,106,3.0,7.0,91,0.00,,,0.00,,2013-07-13 17:12:00,
2013-07-13 13:22:00,69.0,66.0,30.25,ESE,106,3.0,7.0,91,0.00,,,0.00,,2013-07-13 17:22:00,
2013-07-13 13:33:00,69.0,66.0,30.25,East,93,3.0,7.0,89,0.00,,,0.00,,2013-07-13 17:33:00,
2013-07-13 13:43:00,69.0,66.0,30.25,SE,141,3.0,7.0,91,0.00,,,0.00,,2013-07-13 17:43:00,
2013-07-13 13:52:00,69.0,66.0,30.25,SE,141,3.0,7.0,91,0.00,,,0.00,,2013-07-13 17:52:00,
2013-07-13 14:02:00,71.0,67.0,30.25,ESE,109,6.0,10.0,87,0.00,,,0.00,,2013-07-13 18:02:00,
2013-07-13 14:22:00,71.0,68.0,30.24,South,178,0.0,11.0,89,0.00,,,0.00,,2013-07-13 18:22:00,
2013-07-13 14:32:00,71.0,67.0,30.25,East,82,2.0,10.0,86,0.00,,,0.00,,2013-07-13 18:32:00,
2013-07-13 14:44:00,71.0,67.0,30.25,ESE,104,1.0,10.0,86,0.00,,,0.00,,2013-07-13 18:44:00,
2013-07-13 14:53:00,72.0,67.0,30.25,ESE,106,3.0,9.0,85,0.00,,,0.00,,2013-07-13 18:53:00,
2013-07-13 15:02:00,74.0,68.0,30.24,ESE,116,4.0,10.0,82,0.00,,,0.00,,2013-07-13 19:02:00,
2013-07-13 15:11:00,74.0,68.0,30.24,ESE,115,3.0,7.0,81,0.00,,,0.00,,2013-07-13 19:11:00,
2013-07-13 15:22:00,74.0,68.0,30.24,ESE,115,3.0,7.0,81,0.00,,,0.00,,2013-07-13 19:22:00,
2013-07-13 15:32:00,74.0,68.0,30.24,ESE,115,3.0,7.0,81,0.00,,,0.00,,2013-07-13 19:32:00,
2013-07-13 15:44:00,74.0,67.0,30.26,East,88,2.0,12.0,80,0.00,,,0.00,,2013-07-13 19:44:00,
2013-07-13 15:52:00,74.0,67.0,30.26,East,88,2.0,12.0,80,0.00,,,0.00,,2013-07-13 19:52:00,
2013-07-13 16:02:00,74.0,67.0,30.26,East,88,2.0,12.0,80,0.00,,,0.00,,2013-07-13 20:02:00,
2013-07-13 16:11:00,75.0,68.0,30.25,ESE,123,7.0,13.0,78,0.00,,,0.00,,2013-07-13 20:11:00,
2013-07-13 16:22:00,75.0,68.0,30.25,ESE,123,7.0,13.0,78,0.00,,,0.00,,2013-07-13 20:22:00,
2013-07-13 16:33:00,75.0,68.0,30.26,ESE,107,2.0,13.0,80,0.00,,,0.00,,2013-07-13 20:33:00,
2013-07-13 16:43:00,75.0,68.0,30.26,ESE,107,2.0,13.0,80,0.00,,,0.00,,2013-07-13 20:43:00,
2013-07-13 16:52:00,75.0,68.0,30.25,East,83,6.0,7.0,78,0.00,,,0.00,,2013-07-13 20:52:00,
2013-07-13 17:02:00,75.0,68.0,30.25,East,88,1.0,12.0,78,0.00,,,0.00,,2013-07-13 21:02:00,
2013-07-13 17:12:00,75.0,68.0,30.25,East,88,1.0,12.0,78,0.00,,,0.00,,2013-07-13 21:12:00,
2013-07-13 17:22:00,75.0,68.0,30.25,East,88,1.0,12.0,78,0.00,,,0.00,,2013-07-13 21:22:00,
2013-07-13 17:32:00,76.0,68.0,30.24,SE,132,4.0,12.0,76,0.00,,,0.00,,2013-07-13 21:32:00,
2013-07-13 17:43:00,76.0,68.0,30.24,SE,132,4.0,12.0,76,0.00,,,0.00,,2013-07-13 21:43:00,
2013-07-13 17:53:00,76.0,68.0,30.24,SE,132,4.0,12.0,76,0.00,,,0.00,,2013-07-13 21:53:00,
2013-07-13 18:01:00,76.0,69.0,30.25,ESE,123,3.0,11.0,78,0.00,,,0.00,,2013-07-13 22:01:00,
2013-07-13 18:12:00,76.0,69.0,30.25,ESE,123,3.0,11.0,78,0.00,,,0.00,,2013-07-13 22:12:00,
2013-07-13 18:22:00,76.0,69.0,30.25,ESE,123,3.0,11.0,78,0.00,,,0.00,,2013-07-13 22:22:00,
2013-07-13 18:32:00,75.0,69.0,30.26,East,79,1.0,8.0,81,0.00,,,0.00,,2013-07-13 22:32:00,
2013-07-13 18:43:00,75.0,69.0,30.26,East,79,1.0,8.0,81,0.00,,,0.00,,2013-07-13 22:43:00,
2013-07-13 18:53:00,74.0,68.0,30.27,ESE,106,6.0,10.0,83,0.00,,,0.00,,2013-07-13 22:53:00,
2013-07-13 19:02:00,74.0,69.0,30.27,East,87,3.0,10.0,84,0.00,,,0.00,,2013-07-13 23:02:00,
2013-07-13 19:11:00,74.0,69.0,30.27,East,87,3.0,10.0,84,0.00,,,0.00,,2013-07-13 23:11:00,
2013-07-13 19:22:00,74.0,69.0,30.27,SE,140,3.0,11.0,84,0.00,,,0.00,,2013-07-13 23:22:00,
2013-07-13 19:32:00,74.0,69.0,30.26,East,101,4.0,11.0,85,0.00,,,0.00,,2013-07-13 23:32:00,
2013-07-13 19:42:00,74.0,69.0,30.26,East,101,4.0,11.0,85,0.00,,,0.00,,2013-07-13 23:42:00,
2013-07-13 19:53:00,74.0,69.0,30.26,East,101,4.0,11.0,85,0.00,,,0.00,,2013-07-13 23:53:00,
2013-07-13 20:01:00,72.0,68.0,30.27,East,90,3.0,9.0,88,0.00,,,0.00,,2013-07-14 00:01:00,
2013-07-13 20:12:00,72.0,68.0,30.27,East,90,3.0,9.0,88,0.00,,,0.00,,2013-07-14 00:12:00,
2013-07-13 20:22:00,72.0,68.0,30.27,East,90,3.0,9.0,88,0.00,,,0.00,,2013-07-14 00:22:00,
2013-07-13 20:33:00,71.0,68.0,30.28,ENE,65,1.0,8.0,90,0.00,,,0.00,,2013-07-14 00:33:00,
2013-07-13 20:42:00,70.0,67.0,30.28,East,94,0.0,7.0,91,0.00,,,0.00,,2013-07-14 00:42:00,
2013-07-13 20:53:00,70.0,67.0,30.28,East,94,0.0,7.0,91,0.00,,,0.00,,2013-07-14 00:53:00,
2013-07-13 21:02:00,69.0,67.0,30.29,East,79,1.0,9.0,93,0.00,,,0.00,,2013-07-14 01:02:00,
2013-07-13 21:11:00,69.0,67.0,30.29,East,79,1.0,9.0,93,0.00,,,0.00,,2013-07-14 01:11:00,
2013-07-13 21:22:00,69.0,67.0,30.29,ENE,61,0.0,6.0,94,0.00,,,0.00,,2013-07-14 01:22:00,
2013-07-13 21:32:00,69.0,67.0,30.29,ENE,61,0.0,6.0,94,0.00,,,0.00,,2013-07-14 01:32:00,
2013-07-13 21:43:00,69.0,67.0,30.29,ENE,61,0.0,6.0,94,0.00,,,0.00,,2013-07-14 01:43:00,
2013-07-13 21:52:00,69.0,67.0,30.31,East,98,0.0,6.0,94,0.00,,,0.00,,2013-07-14 01:52:00,
2013-07-13 22:02:00,69.0,67.0,30.31,East,79,2.0,6.0,94,0.00,,,0.00,,2013-07-14 02:02:00,
2013-07-13 22:11:00,69.0,67.0,30.31,East,79,2.0,6.0,94,0.00,,,0.00,,2013-07-14 02:11:00,
2013-07-13 22:22:00,69.0,67.0,30.32,ESE,107,1.0,6.0,94,0.00,,,0.00,,2013-07-14 02:22:00,
2013-07-13 22:32:00,69.0,67.0,30.32,East,91,5.0,7.0,94,0.00,,,0.00,,2013-07-14 02:32:00,
2013-07-13 22:43:00,69.0,67.0,30.32,East,91,5.0,7.0,94,0.00,,,0.00,,2013-07-14 02:43:00,
2013-07-13 22:53:00,69.0,68.0,30.33,ESE,110,0.0,6.0,95,0.00,,,0.00,,2013-07-14 02:53:00,
2013-07-13 23:02:00,69.0,68.0,30.33,ESE,110,0.0,6.0,95,0.00,,,0.00,,2013-07-14 03:02:00,
2013-07-13 23:11:00,69.0,68.0,30.34,ESE,115,3.0,7.0,95,0.00,,,0.00,,2013-07-14 03:11:00,
2013-07-13 23:22:00,69.0,68.0,30.34,ESE,110,6.0,8.0,95,0.00,,,0.00,,2013-07-14 03:22:00,
2013-07-13 23:32:00,69.0,68.0,30.34,ESE,110,6.0,8.0,95,0.00,,,0.00,,2013-07-14 03:32:00,
2013-07-13 23:43:00,69.0,68.0,30.34,ESE,119,4.0,7.0,95,0.00,,,0.00,,2013-07-14 03:43:00,
2013-07-13 23:53:00,68.0,67.0,30.34,ESE,122,4.0,9.0,95,0.00,,,0.00,,2013-07-14 03:53:00,